Home   Weather   Alexandria   Past weeks
Flag for USA

Past Weather in Alexandria, Virginia, USA — Yesterday and Last 2 Weeks

Now
75 °F

Broken clouds.


Feels Like: 75 °F
Forecast: 85 / 70 °F
Wind: 3 mph from South

Location: Reagan National Airport

Current Time: Jun 17, 2019 at 8:56:47 pm

Latest Report: Jun 17, 2019 at 7:52 pm


Visibility: 10 mi

Pressure: 29.95 "Hg

Humidity: 82%

Dew Point: 69 °F

Location of AlexandriaLocation

Past Weather in Alexandria — Graph

°F

Alexandria Temperature Yesterday

Maximum temperature yesterday: 86 °F (at 4:52 pm)
Minimum temperature yesterday: 69 °F (at 5:52 am)
Average temperature yesterday: 78 °F

High & Low Weather Summary for the Past Weeks

 TemperatureHumidityPressure
High90 °F (Jun 17, 2:52 pm)94% (Jun 10, 2:52 am)30.22 "Hg (Jun 10, 2:52 am)
Low56 °F (Jun 4, 4:52 am)24% (Jun 3, 5:52 pm)29.71 "Hg (Jun 13, 4:52 pm)
Average73 °F64%29.98 "Hg
* Reported Jun 2 7:10 pm — Jun 17 7:25 pm, Alexandria. Weather by CustomWeather, © 2019

Note: Actual official high and low records may vary slightly from our data, if they occured in-between our weather recording intervals... More about our weather records

Advertising

Alexandria Weather History for the Previous 24 Hours

Scroll right to see more
 ConditionsComfort  
Time TempWeatherWind HumidityBarometerVisibility
7:25 pm
Mon, Jun 17
75 °FThunderstorms. Sunny.3 mph88%29.96 "Hg10 mi
7:01 pm75 °FLight rain. Broken clouds.5 mph79%29.97 "Hg9 mi
6:38 pm77 °FStrong thunderstorms. Cloudy.21 mph85%30.01 "Hg1 mi
6:19 pm77 °FThunderstorms. Partly sunny.7 mph82%29.95 "Hg10 mi
6:06 pm77 °FPartly sunny.9 mph85%29.95 "Hg10 mi
5:44 pm78 °FHeavy rain. Partly sunny.15 mph79%29.93 "Hg3 mi
4:52 pm83 °FPartly sunny.14 mph63%29.93 "Hg10 mi
4:29 pm88 °FThunderstorms. Broken clouds.8 mph55%29.95 "Hg10 mi
3:52 pm88 °FPartly sunny.12 mph54%29.95 "Hg10 mi
2:52 pm90 °FPartly sunny.13 mph48%29.97 "Hg10 mi
1:52 pm89 °FBroken clouds.13 mph53%29.98 "Hg10 mi
12:52 pm88 °FPartly sunny.10 mph54%29.99 "Hg10 mi
11:52 am85 °FPartly sunny.9 mph57%29.99 "Hg10 mi
10:52 am85 °FPartly sunny.No wind50%29.98 "Hg10 mi
9:52 am82 °FPartly sunny.3 mph60%29.98 "Hg10 mi
8:52 am80 °FPartly sunny.No wind62%29.97 "Hg10 mi
7:52 am78 °FScattered clouds.5 mph69%29.98 "Hg10 mi
6:52 am78 °FScattered clouds.6 mph66%29.97 "Hg10 mi
5:52 am76 °FScattered clouds.6 mph72%29.95 "Hg10 mi
4:52 am76 °FMostly cloudy.3 mph77%29.91 "Hg10 mi
3:52 am76 °FMostly cloudy.10 mph80%29.91 "Hg10 mi
2:52 am76 °FPassing clouds.6 mph82%29.89 "Hg10 mi
1:52 am77 °FPartly cloudy.8 mph79%29.90 "Hg10 mi
12:52 am78 °FPassing clouds.6 mph74%29.89 "Hg10 mi
11:52 pm
Sun, Jun 16
80 °FPartly cloudy.8 mph67%29.89 "Hg10 mi
10:52 pm82 °FPassing clouds.9 mph63%29.88 "Hg10 mi
9:52 pm80 °FPassing clouds.7 mph69%29.86 "Hg10 mi
8:52 pm82 °FPartly cloudy.10 mph65%29.85 "Hg10 mi
Weather by CustomWeather, © 2019

See weather overview